Torna al catalogo

COSMOS 939

AttivoMilitareLEO
NORAD 10282·PAYLOAD·🇷🇺 Russia

Lanciato Aug 24, 1977 da Plesetsk Cosmodrome

Loading…

Prossimi Passaggi (prossime 24 ore)

TLE

AggiornatoSource: Space-Track

Epoca: Sep 14, 2026, 06:13 UTC

1 10282U 77079A   26257.25907100 -.00000012  00000-0  26620-4 0  9993
2 10282  74.0284  13.8402 0019874 319.3279  60.2353 12.54294054219109

Traccia COSMOS 939 in tempo reale con AllMySat

Download on the App Store